Overview Statistics Trail Chart Weather Telemetry Raw packets
 

This is the latest recevied weather packets stored in our database for station/object KI5RAB. If no packets are shown the sender has not sent any weather packets the latest 10 day(s).

<< 82 83 84 85 86 87 88 >>
Time Temp. Humidity Pressure Rain* Wind** Luminosity Snow
1788099949 28.33° C 82% 1020.6 hPa 0 mm - 111 W/m² -
1788099644 28.33° C 82% 1020.8 hPa 0 mm - 122 W/m² -
1788099338 27.78° C 82% 1020.7 hPa 0 mm - 308 W/m² -
1788099033 28.33° C 83% 1020.7 hPa 0 mm - 300 W/m² -
1788098733 27.78° C 83% 1020.7 hPa 0 mm - 283 W/m² -
1788098429 27.22° C 84% 1020.7 hPa 0 mm - 191 W/m² -
1788098123 27.22° C 85% 1020.7 hPa 0 mm - 109 W/m² -
1788097819 27.78° C 84% 1020.7 hPa 0 mm - 129 W/m² -
1788097515 27.22° C 86% 1020.6 hPa 0 mm - 117 W/m² -
1788097210 26.67° C 87% 1020.5 hPa 0 mm - 97 W/m² -
1788096905 26.67° C 88% 1020.5 hPa 0 mm - 99 W/m² -
1788096600 26.11° C 89% 1020.5 hPa 0 mm - 76 W/m² -
1788096296 26.11° C 89% 1020.5 hPa 0 mm - 83 W/m² -
1788096007 25.56° C 90% 1020.4 hPa 0 mm - 58 W/m² -
1788095690 25.56° C 90% 1020.4 hPa 0 mm - 57 W/m² -
1788095384 25.56° C 91% 1020.3 hPa 0 mm - 47 W/m² -
1788095080 25.56° C 91% 1020.4 hPa 0 mm - 45 W/m² -
1788094779 25.56° C 91% 1020.3 hPa 0 mm - 53 W/m² -
1788094474 25° C 92% 1020.2 hPa 0 mm - 40 W/m² -
1788094172 25° C 92% 1020.2 hPa 0 mm - 32 W/m² -
1788093867 25° C 93% 1020 hPa 0 mm - 26 W/m² -
1788093564 25° C 93% 1020.2 hPa 0 mm - 24 W/m² -
1788093261 25° C 93% 1020.2 hPa 0 mm - 17 W/m² -
1788092958 24.44° C 94% 1020 hPa 0 mm - 11 W/m² -
1788092653 24.44° C 94% 1020.1 hPa 0 mm - 9 W/m² -

* Rain latest hour (hover to see other rain measurements)
** Current wind speed in m/s (hover to see current wind gust speed)